Date,TemperatureHighF,TemperatureAvgF,TemperatureLowF,DewpointHighF,DewpointAvgF,DewpointLowF,HumidityHigh,HumidityAvg,HumidityLow,PressureMaxIn,PressureMinIn,WindSpeedMaxMPH,WindSpeedAvgMPH,GustSpeedMaxMPH,PrecipitationSumIn
2013-1-1,49.0,41.6,35.9,36.6,33.3,28.7,93,73,55,30.31,30.24,5,1,15,0.00
2013-1-2,52.1,43.0,35.6,34.9,31.0,28.0,79,64,43,30.28,30.18,5,1,11,0.00
2013-1-3,51.7,42.1,35.2,40.2,35.3,31.1,89,77,62,30.31,30.20,4,0,10,0.00
2013-1-4,53.5,44.8,39.2,36.8,34.3,31.4,81,67,47,30.33,30.22,4,1,11,0.00
2013-1-5,50.3,42.6,39.2,44.4,39.9,36.0,98,90,79,30.29,30.11,3,0,7,0.29
2013-1-6,46.0,42.3,40.3,43.8,41.2,39.5,98,96,90,30.22,30.10,4,0,11,0.01
2013-1-7,57.2,46.0,38.2,47.3,42.6,37.4,98,89,66,30.29,30.19,3,0,9,0.01
2013-1-8,54.9,45.8,37.4,46.0,42.2,36.6,99,88,70,30.28,30.17,4,0,7,0.01
2013-1-9,51.4,43.4,38.8,47.3,39.5,-99.9,99,89,73,30.18,30.01,4,-8,15,0.01
2013-1-10,47.9,40.5,34.3,35.7,33.3,30.5,91,76,52,30.22,30.09,4,1,14,0.00
2013-1-11,48.9,40.6,35.2,38.4,33.9,29.9,95,78,59,30.28,30.15,3,0,10,0.00
2013-1-12,47.8,39.3,32.3,34.4,28.9,23.5,94,69,41,30.28,30.17,3,0,8,0.01
2013-2-13,64.4,50.5,40.0,43.4,38.8,36.4,89,66,38,30.36,30.24,4,1,0,0.00
2013-2-14,66.6,55.2,44.5,44.6,41.2,37.4,80,60,43,30.27,30.19,5,1,0,0.00
2013-2-15,67.6,57.9,49.1,43.6,39.7,35.5,67,51,37,30.30,30.24,5,1,0,0.00
2013-2-16,65.9,55.4,47.0,47.1,43.9,39.9,85,66,46,30.26,30.06,4,0,0,0.00
2013-2-17,64.3,50.4,42.7,47.4,41.7,38.0,96,74,40,30.07,29.99,5,1,0,0.00
2013-2-18,50.6,45.2,41.9,41.9,39.5,35.7,95,81,65,30.05,29.98,5,2,0,0.00
2013-2-19,45.9,41.3,35.1,41.5,37.5,32.9,96,86,74,29.99,29.77,4,1,8,0.62
2013-2-20,57.7,44.4,34.6,40.2,35.5,31.7,92,73,43,30.08,29.87,4,1,8,0.00
2013-2-21,59.0,46.2,36.6,38.6,35.0,29.6,89,68,33,30.20,30.07,4,1,10,0.00
2013-2-22,61.8,48.9,37.9,43.0,38.8,34.7,92,70,38,30.28,30.20,3,1,4,0.00
2013-2-23,57.1,48.1,40.5,45.0,38.3,31.8,92,71,39,30.28,30.18,5,1,9,0.00
2013-2-24,61.7,49.3,40.0,35.3,27.1,20.9,80,44,22,30.28,30.19,4,1,7,0.00
2013-2-25,62.2,49.7,40.9,43.5,39.2,31.1,91,69,48,30.29,30.19,4,1,10,0.00
2013-2-26,67.2,51.8,39.9,39.3,32.4,24.0,88,53,21,30.24,30.16,3,1,7,0.00
2013-2-27,68.3,54.0,43.1,43.3,36.0,27.5,79,52,27,30.38,30.23,4,1,8,0.00
2013-2-28,66.6,54.8,45.5,51.8,47.5,42.6,92,77,57,30.47,30.38,4,1,9,0.00
2013-3-1,70.2,57.5,46.7,51.8,47.4,44.7,98,72,43,30.45,30.26,4,1,8,0.00
2013-3-2,69.3,58.3,51.3,53.9,48.6,44.8,81,71,51,30.27,30.08,3,0,8,0.00
2013-3-3,64.6,53.2,45.2,48.8,45.8,43.0,93,77,52,30.11,30.05,4,1,8,0.00
2013-3-4,58.9,47.3,41.2,47.6,43.2,39.1,96,86,64,30.17,30.08,4,1,7,0.00
2013-3-5,53.8,46.6,39.0,44.1,40.6,37.4,95,81,63,30.08,29.87,7,2,13,0.19
2013-3-6,52.1,47.1,40.2,46.4,41.7,38.6,96,82,64,30.10,29.87,6,2,10,0.36
2013-3-7,53.5,46.0,37.9,43.3,40.0,36.9,98,81,60,30.02,29.89,3,0,6,0.04
2013-3-8,60.0,47.8,39.9,44.5,40.2,37.4,97,77,49,30.07,29.86,4,1,9,0.00
2013-3-9,66.5,51.4,38.7,43.3,39.8,37.1,95,68,38,30.33,30.07,4,1,9,0.01
2013-3-10,68.8,54.7,44.1,43.3,37.3,29.6,76,54,29,30.37,30.27,4,1,7,0.00
2013-3-11,72.1,56.9,43.8,47.5,37.2,27.7,65,49,34,30.28,30.12,4,1,6,0.00
2013-3-12,76.1,59.0,45.7,52.2,45.2,37.4,85,62,36,30.17,30.09,4,1,6,0.00
2013-3-13,75.8,62.1,49.3,55.1,50.4,44.8,87,67,46,30.17,30.09,3,1,6,0.00
2013-3-14,71.3,59.8,51.0,55.6,48.6,41.1,90,68,44,30.17,30.09,3,0,7,0.00
2013-3-15,72.2,57.1,46.8,50.3,45.2,40.6,83,66,38,30.15,30.06,5,1,7,0.00
2013-3-16,71.0,56.8,44.6,48.9,44.4,41.2,96,67,38,30.13,30.04,4,1,9,0.00
2013-3-17,68.6,54.5,44.1,45.1,41.8,37.3,86,64,34,30.17,30.06,3,1,7,0.00
2013-3-18,66.9,54.0,42.5,50.7,42.5,39.1,89,67,38,30.14,30.05,3,0,5,0.00
2013-3-19,68.1,53.1,45.0,47.2,43.1,36.7,95,71,41,30.16,30.08,4,0,6,0.08
2013-3-20,48.9,47.9,46.6,47.8,46.8,45.2,97,96,95,30.12,30.10,1,0,2,0.02
2013-3-22,66.4,57.6,45.3,39.1,29.7,-99.9,77,40,18,30.14,-32.77,4,-14,9,0.00
2013-3-23,67.3,53.6,42.8,39.2,32.4,25.5,81,48,25,30.17,30.07,4,1,8,0.00
2013-3-24,71.1,55.5,45.0,50.6,41.2,32.6,80,60,41,30.11,29.99,4,1,7,0.00
2013-3-25,60.1,48.7,41.6,44.9,42.6,40.0,95,80,54,30.04,29.96,5,1,8,0.00
2013-3-26,67.8,52.8,43.8,50.3,44.5,41.4,92,75,46,30.03,29.95,2,1,7,0.00
2013-3-27,61.0,52.0,45.5,52.6,47.7,41.8,96,85,72,30.04,29.97,4,1,8,0.00
2013-3-28,67.1,56.0,50.5,55.5,51.8,48.6,98,87,66,30.11,30.03,4,0,6,0.06
2013-3-29,74.4,59.5,49.0,54.5,50.4,46.8,95,74,48,30.12,30.03,4,1,8,0.01
2013-3-30,69.3,56.7,51.4,54.4,50.9,48.8,96,82,58,30.08,30.00,4,1,8,0.03
2013-3-31,63.9,56.0,51.0,54.9,50.9,47.7,97,84,58,30.09,30.02,4,1,5,0.07
2013-4-1,63.8,54.1,47.4,54.6,50.5,45.6,98,88,66,30.18,30.07,4,0,6,0.70
2013-4-2,67.9,54.0,44.3,56.4,49.2,43.3,98,85,58,30.21,30.11,4,1,7,0.01
2013-4-3,74.6,56.8,45.0,56.5,49.3,44.2,98,78,48,30.16,30.01,4,1,10,0.00
2013-4-4,62.0,54.2,49.5,56.3,51.4,46.1,98,90,76,30.14,30.01,4,1,6,0.35
2013-4-5,62.2,54.7,50.4,53.9,50.4,48.2,97,86,67,30.21,30.14,3,1,8,0.01
2013-4-6,63.7,54.5,49.4,54.9,51.0,47.6,95,88,73,30.22,30.15,3,0,6,0.00
2013-4-7,61.7,52.8,48.3,53.2,48.9,45.3,97,87,67,30.19,29.86,5,1,9,0.15
2013-4-8,66.9,52.6,43.3,47.5,38.5,24.0,93,63,20,30.06,29.82,5,2,13,0.00
2013-4-9,73.9,59.0,44.7,44.4,36.3,26.2,88,49,18,30.13,30.06,5,1,8,0.00
2013-4-10,82.6,67.1,53.0,52.3,46.9,36.1,72,50,32,30.20,30.04,5,1,11,0.00
2013-4-11,72.4,59.1,47.2,50.8,46.4,42.8,88,65,38,30.06,29.85,3,1,6,0.00
2013-4-12,77.1,57.5,44.6,53.1,45.8,39.5,94,69,30,29.93,29.84,4,0,7,0.00
2013-4-13,69.8,56.2,45.6,49.0,44.6,38.9,93,68,42,29.92,29.84,4,1,9,0.00
2013-4-14,68.1,53.8,43.2,46.4,39.0,30.0,88,60,33,29.96,29.86,5,1,11,0.00
2013-4-15,58.8,48.8,41.8,45.4,39.3,33.6,92,72,44,29.98,29.87,6,1,11,0.00
2013-4-16,66.1,51.9,39.4,38.4,32.9,18.3,83,53,17,30.19,29.98,4,1,10,0.00
2013-4-17,67.1,57.4,49.5,37.2,28.5,20.5,54,35,18,30.29,30.19,5,1,10,0.00
2013-4-18,75.1,60.4,49.0,42.4,36.6,30.5,64,43,26,30.29,30.20,3,1,5,0.00
2013-4-19,79.6,64.6,51.9,54.8,45.1,36.2,65,50,34,30.24,30.08,4,1,7,0.00
2013-4-20,79.2,63.7,51.6,48.1,43.8,38.8,75,51,27,30.13,30.00,5,1,7,0.00
2013-4-21,83.8,67.3,51.8,48.8,43.5,38.1,74,45,23,30.06,29.94,2,0,7,0.00
2013-4-22,86.8,71.7,60.0,48.7,42.6,35.7,55,37,17,29.98,29.85,3,1,6,0.00
2013-4-23,81.8,65.6,50.1,46.2,35.2,23.7,72,36,15,29.95,29.87,3,1,8,0.00
2013-4-24,72.2,55.5,45.4,50.3,44.9,37.2,89,70,32,29.96,29.84,4,1,10,0.00
2013-4-25,64.4,53.7,46.6,50.7,47.9,44.6,93,82,59,30.15,29.95,3,1,13,0.00
2013-4-26,71.6,55.6,45.2,54.9,48.1,43.7,96,78,50,30.25,30.15,3,0,6,0.01
2013-4-27,81.2,59.8,44.5,59.1,49.6,43.2,96,72,39,30.25,30.08,3,0,5,0.00
2013-4-28,86.6,66.3,47.2,58.4,50.1,43.7,90,60,27,30.09,29.90,2,0,5,0.00
2013-4-29,86.8,71.5,57.9,54.0,50.0,45.6,76,50,24,29.91,29.76,4,1,7,0.00
2013-4-30,81.9,66.6,53.5,48.9,43.5,24.9,80,48,22,29.87,29.79,4,1,10,0.00
2013-5-1,82.2,69.6,56.3,40.5,27.0,16.6,42,22,11,30.09,29.87,4,1,7,0.00
2013-5-2,89.1,72.9,61.4,37.7,29.1,20.6,33,21,11,30.18,30.08,3,1,5,0.00
2013-5-3,90.0,73.0,61.9,47.3,36.4,26.0,42,27,19,30.09,29.80,2,0,5,0.00
2013-5-4,86.9,68.0,51.7,50.6,41.8,32.5,89,44,19,29.80,29.57,5,1,8,0.00
2013-5-5,65.9,56.9,51.5,51.0,48.2,46.2,89,73,54,29.83,29.60,3,0,5,0.00
2013-5-6,68.5,58.0,50.6,52.0,50.3,48.0,92,77,53,29.99,29.84,3,1,5,0.00
2013-5-7,71.2,59.3,51.7,54.3,50.5,46.9,92,75,47,30.06,29.98,3,1,6,0.00
2013-5-8,65.9,54.0,49.0,52.5,49.5,47.1,95,85,61,30.16,30.05,2,1,5,0.00
2013-5-9,67.6,55.8,48.2,53.1,49.2,46.5,94,80,59,30.19,30.11,2,1,5,0.00
2013-5-10,76.7,59.0,48.2,58.1,51.4,46.6,96,78,51,30.20,30.12,2,0,5,0.00
2013-5-11,91.0,66.7,49.0,62.7,53.1,46.6,95,67,24,30.16,30.05,4,0,10,0.00
2013-5-12,81.6,66.5,52.5,59.4,50.4,39.6,86,58,32,30.15,30.03,5,1,7,0.00
2013-5-13,82.0,64.3,48.7,57.8,51.8,45.7,91,66,42,30.09,29.95,3,0,8,0.00
2013-5-14,70.6,59.2,49.9,53.9,49.5,44.8,93,72,50,30.01,29.93,3,1,6,0.00
2013-5-15,65.8,56.0,47.3,50.6,47.4,44.1,91,74,56,30.07,30.00,3,1,6,0.00
2013-5-16,67.2,57.6,50.5,55.3,50.5,46.8,88,78,57,30.05,29.98,3,1,7,0.00
2013-5-17,67.4,55.5,48.0,49.4,46.8,44.4,92,74,49,30.09,29.99,3,1,7,0.00
2013-5-18,75.8,60.1,46.7,52.0,48.2,44.8,95,68,38,30.15,30.09,3,1,6,0.00
2013-5-19,82.0,65.8,48.9,49.9,45.7,40.0,88,53,24,30.14,30.00,4,1,7,0.00
2013-5-20,86.7,71.1,54.5,47.1,42.0,31.4,72,38,18,30.02,29.92,5,1,7,0.00
2013-5-21,70.5,58.9,49.3,48.6,44.1,39.2,84,60,34,29.99,29.90,5,1,9,0.00
2013-5-22,66.7,53.8,44.1,41.2,35.5,25.3,77,53,23,30.04,29.92,4,1,8,0.00
2013-5-23,68.3,54.8,42.4,45.4,41.6,38.7,87,63,41,30.03,29.93,3,1,7,0.00
2013-5-24,69.8,55.7,44.9,48.1,43.1,38.1,92,66,35,30.02,29.96,3,1,5,0.00
2013-5-25,65.7,54.6,46.2,48.8,46.1,43.5,92,75,50,30.07,29.98,3,1,11,0.00
2013-5-26,68.1,57.5,49.6,53.9,50.3,46.3,91,78,57,30.15,30.06,3,1,7,0.00
2013-5-27,64.5,55.5,48.0,55.4,51.2,45.3,96,86,70,30.14,30.02,3,1,6,0.03
2013-5-28,73.1,60.4,53.7,57.7,53.9,48.8,98,81,53,30.03,29.94,3,0,6,0.01
2013-5-29,71.8,60.7,53.5,54.8,51.0,44.7,85,72,51,29.99,29.92,4,1,8,0.00
2013-5-30,77.5,61.4,47.2,50.0,46.2,42.6,94,61,32,30.01,29.94,3,0,6,0.00
2013-5-31,87.3,68.5,48.9,51.7,46.7,43.9,86,51,23,30.03,29.92,3,1,7,0.00
2013-6-1,93.6,74.5,57.2,52.9,48.2,45.2,69,43,20,29.94,29.77,3,1,7,0.00
2013-6-2,85.7,67.8,55.1,56.4,50.2,46.6,79,56,32,29.77,29.67,2,0,4,0.00
2013-6-3,70.1,58.6,50.6,54.6,50.8,48.3,93,77,56,29.87,29.72,5,1,16,0.00
2013-6-4,67.5,56.5,50.0,54.0,50.7,48.0,95,82,62,29.97,29.86,4,1,8,0.00
2013-6-5,71.9,58.2,50.0,54.3,50.4,47.8,93,77,53,30.01,29.92,2,0,6,0.00
2013-6-6,80.5,61.8,49.7,58.2,52.3,48.0,94,74,46,29.96,29.85,3,0,4,0.00
2013-6-7,96.6,72.1,50.3,64.0,55.3,48.6,96,62,33,29.89,29.73,3,0,6,0.00
2013-6-8,103.1,76.9,56.6,62.8,56.0,49.4,87,52,26,29.79,29.68,6,1,8,0.00
2013-6-9,64.1,57.2,54.0,56.1,53.4,51.7,96,87,75,29.90,29.78,5,2,10,0.00
2013-6-10,67.5,57.6,52.2,54.5,51.7,49.7,92,81,60,29.97,29.79,4,2,13,0.00
2013-6-11,75.9,61.2,51.8,56.8,52.4,48.7,93,75,48,30.01,29.91,3,0,5,0.00
2013-6-12,79.3,63.9,49.8,52.6,48.3,43.8,88,60,33,30.00,29.91,2,0,8,0.00
2013-6-13,79.7,64.0,48.0,49.3,45.3,37.5,88,55,24,30.10,30.00,4,1,10,0.00
2013-6-14,86.1,68.6,52.1,49.7,43.5,33.9,80,45,17,30.00,29.83,4,1,7,0.00
2013-6-15,72.7,58.5,49.1,52.4,48.7,44.3,89,71,48,30.01,29.83,2,0,8,0.00
2013-6-16,81.8,64.0,49.5,51.1,47.9,46.1,91,60,30,30.09,30.00,6,1,10,0.00
2013-6-17,76.3,62.8,50.5,55.9,51.1,46.5,88,68,46,30.09,30.02,4,1,8,0.00
2013-6-18,68.7,59.2,51.4,51.6,49.3,46.4,93,71,48,30.04,29.98,4,1,13,0.00
2013-6-19,75.0,60.6,48.8,49.1,46.3,44.1,86,62,35,30.07,30.00,3,1,7,0.00
2013-6-20,78.8,63.2,49.1,51.1,46.3,42.0,86,58,32,30.02,29.96,4,1,7,0.00
2013-6-21,82.1,65.2,48.6,51.1,47.6,42.7,91,58,27,29.99,29.92,3,0,6,0.00
2013-6-22,87.7,69.0,52.6,52.2,47.8,41.0,82,52,20,29.94,29.84,4,1,7,0.00
2013-6-23,62.9,58.4,53.9,58.9,55.4,51.2,94,90,82,29.89,29.83,4,1,6,0.00
2013-6-24,61.7,58.6,55.8,58.6,56.1,53.7,96,92,84,29.92,29.81,1,0,4,0.01
2013-6-25,69.7,62.9,59.3,65.2,60.7,57.1,97,93,84,30.01,29.90,4,1,6,0.10
2013-6-26,80.3,68.7,60.1,65.3,61.4,57.8,98,79,55,30.06,29.99,5,1,10,0.01
2013-6-27,89.1,72.0,56.7,62.6,58.3,54.8,97,66,36,30.09,30.01,3,1,9,0.00
2013-6-28,100.0,81.8,64.5,64.8,57.4,50.0,78,48,21,30.03,29.89,4,1,8,0.00
2013-6-29,100.5,84.6,69.2,59.9,53.5,48.1,53,36,24,29.91,29.78,4,1,7,0.00
2013-6-30,97.0,80.0,65.2,57.8,55.0,52.5,66,45,26,29.83,29.74,4,1,9,0.00
2013-7-1,98.3,79.7,61.1,63.9,57.4,53.3,78,50,26,29.83,29.78,3,0,5,0.00
2013-7-2,94.7,78.2,63.3,61.8,57.2,54.3,75,50,31,29.90,29.80,3,1,8,0.00
2013-7-3,97.2,75.5,57.3,64.5,57.7,54.4,93,59,28,29.90,29.76,3,0,5,0.00
2013-7-4,99.2,80.5,67.3,63.6,57.4,47.9,70,48,29,29.77,29.66,4,1,8,0.00
2013-7-5,68.4,59.5,53.1,54.7,51.6,49.1,91,76,55,29.78,29.69,3,1,8,0.00
2013-7-6,75.6,58.5,51.4,55.3,51.9,49.3,93,80,48,29.82,29.75,3,1,5,0.00
2013-7-7,83.6,61.8,50.2,57.3,52.4,48.9,97,75,37,29.87,29.79,4,1,6,0.00
2013-7-8,84.8,62.6,49.6,56.4,51.9,48.1,96,73,31,29.97,29.86,3,0,5,0.01
2013-7-9,95.0,73.0,51.4,61.3,53.2,37.5,95,57,14,30.03,29.92,4,1,6,0.00
2013-7-10,88.7,66.8,51.7,56.0,49.3,33.4,90,60,14,29.97,29.89,4,0,8,0.00
2013-7-11,74.7,58.2,50.3,55.5,51.2,48.3,96,80,51,29.95,29.89,3,1,8,0.00
2013-7-12,80.3,62.5,52.0,56.0,51.3,46.8,93,70,39,29.95,29.88,3,1,5,0.00
2013-7-13,87.3,68.0,53.5,54.1,50.4,43.6,88,58,25,29.96,29.90,2,0,6,0.00
2013-7-14,82.6,64.5,51.2,55.3,50.8,43.5,91,65,34,29.99,29.89,2,0,5,0.00
2013-7-15,69.4,56.3,49.7,54.6,50.6,47.7,95,83,57,29.94,29.85,2,1,5,0.00
2013-7-16,67.9,57.3,53.3,55.4,52.3,49.7,93,84,64,30.05,29.88,3,1,6,0.00
2013-7-17,79.7,64.1,53.9,58.4,54.6,50.8,93,74,44,30.11,30.03,2,0,4,0.00
2013-7-18,87.8,66.1,50.4,58.6,51.6,42.9,97,67,22,30.07,29.94,4,1,6,0.01
2013-7-19,90.5,68.2,51.5,59.7,53.9,49.5,95,65,28,29.95,29.82,3,0,8,0.00
2013-7-20,90.3,66.0,52.2,59.7,53.8,50.0,94,69,31,29.85,29.73,2,0,7,0.00
2013-7-21,83.9,65.2,51.9,56.2,51.7,45.5,93,66,28,29.88,29.77,3,1,7,0.00
2013-7-22,81.4,63.8,53.2,59.7,54.7,50.5,96,75,44,29.97,29.88,2,0,6,0.00
2013-7-23,80.5,67.2,58.4,57.6,53.5,49.3,85,63,35,30.00,29.93,3,0,7,0.00
2013-7-24,89.0,72.7,59.5,57.4,52.3,45.1,81,53,22,29.98,29.89,5,1,7,0.00
2013-7-25,86.9,68.9,57.1,58.0,53.3,50.2,80,60,36,30.01,29.92,1,0,5,0.00
2013-7-26,86.1,64.9,52.7,59.0,53.7,49.3,93,70,39,30.09,30.00,3,0,5,0.00
2013-7-27,77.6,62.3,53.1,58.9,54.1,51.2,95,77,48,30.03,29.87,3,1,6,0.00
2013-7-28,73.1,59.7,53.0,56.1,53.0,50.5,96,80,54,29.88,29.82,4,1,7,0.00
2013-7-29,68.5,57.8,52.8,56.1,52.4,50.5,93,83,63,30.02,29.85,5,1,8,0.00
2013-7-30,74.4,59.8,50.6,56.4,52.5,49.2,97,79,52,30.11,30.02,4,1,8,0.00
2013-7-31,76.2,60.6,51.1,55.6,52.2,49.2,95,76,47,30.09,30.01,2,1,7,0.00
2013-8-1,73.2,59.7,51.4,53.5,51.5,49.4,94,76,49,30.08,29.98,3,1,6,0.01
2013-8-2,84.6,63.8,52.1,56.8,52.4,48.6,95,70,36,30.00,29.91,2,0,4,0.00
2013-8-3,79.1,61.8,52.1,56.5,52.5,49.4,95,74,42,29.98,29.91,2,0,6,0.01
2013-8-4,76.8,59.2,51.3,55.9,52.3,49.9,96,80,47,30.02,29.96,2,1,6,0.00
2013-8-5,76.1,59.7,51.2,56.3,52.4,49.5,95,80,48,30.04,29.95,2,1,10,0.00
2013-8-6,70.1,57.8,51.3,55.6,52.6,49.3,95,84,59,30.06,29.98,3,1,5,0.00
2013-8-7,65.9,58.1,53.7,56.0,53.8,51.3,96,86,69,30.12,30.05,4,1,10,0.00
2013-8-8,73.9,59.8,53.0,58.2,54.4,51.1,97,84,54,30.05,29.95,2,0,6,0.02
2013-8-9,71.0,58.6,52.0,57.1,53.5,50.4,96,84,60,30.01,29.93,2,1,6,0.00
2013-8-10,76.5,61.1,54.0,58.9,55.1,52.3,96,82,54,30.07,30.00,2,1,5,0.00
2013-8-11,79.6,63.4,53.6,58.6,54.8,52.4,97,77,43,30.04,29.95,4,1,6,0.00
2013-8-12,85.2,65.1,52.3,58.9,53.3,50.2,96,70,36,30.01,29.94,2,0,6,0.00
2013-8-13,91.0,69.8,53.1,58.4,52.1,43.0,93,59,20,30.00,29.91,4,0,7,0.00
2013-8-14,87.9,67.4,53.5,58.6,53.6,46.8,91,66,30,29.98,29.90,3,0,6,0.00
2013-8-15,85.1,69.1,58.9,64.5,60.4,57.0,96,77,43,29.97,29.91,3,0,6,0.00
2013-8-16,87.7,70.7,58.2,64.2,58.7,53.5,98,70,36,29.98,29.94,2,0,5,0.00
2013-8-17,81.4,66.1,56.7,60.2,56.6,52.3,92,74,45,29.99,29.87,1,0,5,0.00
2013-8-18,98.7,75.8,57.4,61.9,57.2,49.1,93,59,20,29.89,29.78,3,0,6,0.00
2013-8-19,95.2,76.8,65.6,63.1,56.8,52.9,68,51,33,29.88,29.79,5,1,6,0.00
2013-8-20,80.2,65.7,55.5,58.6,54.9,48.3,91,70,45,29.89,29.82,4,1,7,0.00
2013-8-21,77.8,61.8,53.6,57.5,53.8,51.6,95,78,43,29.95,29.86,4,1,7,0.00
2013-8-22,75.5,60.7,54.0,56.3,51.6,-99.9,93,76,51,29.98,29.90,2,-13,6,0.00
2013-8-23,80.7,62.8,53.9,58.7,54.5,51.9,93,77,46,29.94,29.81,2,0,6,0.00
2013-8-24,79.9,63.4,54.1,59.3,53.8,-99.9,95,75,48,29.91,29.84,3,-12,8,0.00
2013-8-25,79.1,65.6,58.9,62.8,59.4,56.4,96,82,55,29.95,29.90,5,1,15,0.00
2013-8-26,78.1,64.8,57.3,58.6,54.9,49.8,93,73,44,30.02,29.91,5,1,12,0.00
2013-8-27,84.4,66.9,54.0,57.0,54.2,50.2,93,68,34,29.92,29.82,4,1,13,0.00
2013-8-28,81.6,66.4,55.8,63.3,58.6,53.7,97,78,49,29.95,29.86,4,1,12,0.00
2013-8-29,81.6,67.3,57.2,63.9,59.8,56.1,97,79,50,30.06,29.95,4,1,13,0.00
2013-8-30,91.6,73.1,58.9,62.6,57.2,46.8,95,63,22,30.05,29.92,3,1,12,0.00
2013-8-31,81.9,68.2,56.6,58.8,56.3,52.8,89,68,42,29.97,29.89,2,0,8,0.00
2013-9-1,82.4,66.9,56.0,59.1,55.9,53.4,92,71,39,29.95,29.88,3,1,13,0.00
2013-9-2,79.6,67.6,60.5,63.1,59.9,55.2,92,78,50,29.96,29.89,3,0,8,0.00
2013-9-3,77.2,65.2,56.1,58.8,54.8,49.5,91,71,42,30.01,29.93,4,1,13,0.00
2013-9-4,79.4,65.4,55.5,59.0,56.5,54.1,96,76,44,30.04,29.94,4,0,14,0.00
2013-9-5,78.4,65.4,55.9,57.7,54.3,50.9,95,70,41,30.02,29.95,4,1,13,0.01
2013-9-6,89.8,71.5,53.8,55.9,50.6,43.3,93,55,20,30.00,29.84,5,1,11,0.00
2013-9-7,94.8,77.3,65.6,54.2,47.9,43.7,55,38,19,29.88,29.80,4,1,10,0.00
2013-9-8,94.6,76.4,60.7,58.3,52.0,45.9,72,46,20,29.86,29.74,4,0,10,0.00
2013-9-9,96.4,77.0,63.2,57.2,51.8,46.5,71,45,20,29.80,29.68,3,1,11,0.00
2013-9-10,73.2,63.6,55.9,59.7,56.6,52.8,93,79,61,29.90,29.72,4,1,13,0.00
2013-9-11,71.2,63.2,59.7,59.1,57.1,55.6,90,81,65,30.01,29.90,4,1,11,0.00
2013-9-12,80.3,64.4,56.9,63.3,58.5,55.0,94,83,53,29.99,29.89,2,0,8,0.00
2013-9-13,83.7,64.9,55.3,60.0,55.7,52.8,96,75,44,29.91,29.76,2,0,8,0.00
2013-9-14,74.2,60.9,54.0,59.1,54.8,52.0,95,82,58,29.83,29.75,3,0,8,0.00
2013-9-15,78.3,62.8,52.8,58.6,55.0,51.1,95,78,49,29.88,29.79,4,1,13,0.01
2013-9-16,82.8,65.5,56.0,60.1,56.8,53.2,97,77,40,29.90,29.80,4,0,11,0.01
2013-9-17,73.4,62.8,54.4,55.4,53.1,50.3,95,73,47,29.89,29.82,4,1,12,0.01
2013-9-18,82.2,65.3,52.7,51.9,47.7,40.8,87,57,26,29.93,29.83,4,1,13,0.00
2013-9-19,89.2,71.4,57.0,50.6,44.4,39.3,65,41,18,29.86,29.75,3,0,12,0.00
2013-9-20,71.2,61.5,51.7,60.3,54.6,46.9,93,79,63,29.86,29.77,5,1,19,0.00
2013-9-21,65.3,59.9,53.9,60.1,56.1,51.6,96,88,72,29.91,29.82,2,0,13,0.49
2013-9-22,72.3,59.8,50.9,54.8,52.1,49.9,98,78,49,30.02,29.91,3,0,11,0.01
2013-9-23,80.3,64.8,51.9,58.8,54.0,49.4,92,71,41,30.04,29.94,3,0,12,0.00
2013-9-24,74.4,62.4,55.9,55.6,52.4,47.4,92,71,46,30.00,29.90,6,1,20,0.00
2013-9-25,69.0,58.4,52.5,48.5,46.3,43.8,82,65,42,29.95,29.83,4,1,14,0.00
2013-9-26,73.8,59.2,47.0,45.5,41.9,35.3,85,57,25,30.01,29.85,4,1,12,0.00
2013-9-27,77.2,62.7,53.3,44.2,38.1,33.3,65,42,22,30.12,30.01,3,0,9,0.00
2013-9-28,83.3,66.1,53.9,54.2,39.8,32.6,88,43,18,30.10,30.01,2,0,8,0.00
2013-9-29,74.4,62.1,54.3,59.4,56.2,52.3,96,82,59,30.12,30.07,3,0,10,0.00
2013-9-30,74.8,63.9,56.5,62.3,58.6,46.3,96,84,60,30.09,29.98,2,0,9,0.02
2013-10-1,72.4,59.6,49.6,51.0,48.0,43.3,92,67,44,30.03,29.93,3,0,10,0.00
2013-10-2,75.0,60.9,50.9,53.1,47.5,41.3,87,64,39,30.02,29.95,2,0,10,0.00
2013-10-3,72.7,61.0,48.2,43.3,35.5,25.7,77,44,18,30.09,29.98,5,1,22,0.00
2013-10-4,76.8,66.9,56.5,31.9,28.7,26.0,36,24,16,30.12,29.99,5,2,20,0.00
2013-10-5,80.9,67.7,57.0,33.1,28.7,24.5,35,24,15,30.23,30.12,3,0,10,0.00
2013-10-6,84.2,67.9,58.0,40.0,33.4,27.5,38,29,16,30.15,30.01,3,0,12,0.00
2013-10-7,82.7,67.9,57.3,43.5,32.9,22.1,60,29,12,30.01,29.88,3,0,12,0.00
2013-10-8,75.3,60.6,50.6,47.0,43.8,40.2,82,57,30,29.91,29.73,3,0,10,0.00
2013-10-9,68.4,56.6,47.3,47.5,44.5,40.0,93,67,41,29.78,29.65,3,0,9,0.00
2013-10-10,70.9,58.5,48.9,49.5,44.1,37.5,89,61,38,30.02,29.78,4,0,9,0.00
2013-10-11,69.1,54.8,45.6,51.6,46.6,42.6,96,76,42,30.11,30.00,3,0,9,0.00
2013-10-12,72.1,56.3,46.9,51.8,46.3,42.8,90,72,40,30.02,29.92,2,0,8,0.00
2013-10-13,73.4,58.1,47.2,49.7,43.8,37.1,92,63,30,30.09,29.93,3,0,11,0.00
2013-10-14,75.0,62.2,51.6,41.2,38.1,33.7,62,43,24,30.15,30.03,3,1,9,0.00
2013-10-15,76.8,63.5,53.9,36.9,34.4,30.6,51,36,19,30.08,29.98,5,1,15,0.00
2013-10-16,80.5,65.6,56.8,37.9,33.2,28.1,42,31,20,30.12,30.01,2,0,8,0.00
2013-10-17,81.4,65.7,56.6,39.0,33.3,28.7,45,31,16,30.10,29.98,3,0,9,0.00
2013-10-18,80.9,65.3,53.6,43.2,36.3,27.7,54,36,20,30.06,29.99,4,0,10,0.00
2013-10-19,80.9,66.1,54.6,43.0,40.0,36.5,54,40,25,30.09,30.00,2,0,9,0.00
2013-10-20,82.7,65.5,52.2,46.0,41.7,37.9,66,44,22,30.03,29.91,3,0,10,0.00
2013-10-21,79.0,61.1,47.3,53.1,47.1,41.6,90,63,34,30.01,29.92,3,0,7,0.00
2013-10-22,81.2,61.1,43.9,53.2,47.6,41.8,96,65,32,30.03,29.92,3,0,6,0.00
2013-10-23,77.2,57.5,44.2,55.0,48.3,42.2,96,74,43,29.99,29.90,3,0,8,0.00
2013-10-24,61.5,51.6,46.0,49.5,47.1,44.9,97,85,64,30.13,29.98,3,0,7,0.00
2013-10-25,73.2,56.5,44.9,52.5,47.5,43.8,97,75,41,30.20,30.11,3,0,9,0.01
2013-10-26,79.5,63.0,51.3,49.5,45.0,40.3,81,55,27,30.17,30.04,4,0,6,0.00
2013-10-27,60.7,52.2,46.4,49.4,45.1,36.3,93,78,44,30.03,29.68,6,2,17,0.00
2013-10-28,60.1,51.6,43.9,47.4,44.8,40.9,93,79,56,29.87,29.69,3,1,11,0.00
2013-10-29,61.3,52.8,44.9,47.5,45.7,42.7,92,78,57,30.08,29.86,2,0,9,0.00
2013-10-30,65.0,52.6,43.5,50.1,44.9,38.1,96,77,50,30.18,30.08,2,0,9,0.01
2013-10-31,71.9,57.5,45.7,47.0,42.4,36.0,79,59,39,30.20,30.09,3,0,7,0.00
2013-11-1,71.5,59.8,49.2,47.3,44.1,41.8,76,57,38,30.17,30.03,3,0,9,0.00
2013-11-2,71.9,59.0,49.9,51.3,45.6,41.7,87,63,38,30.05,29.91,3,0,10,0.00
2013-11-3,63.4,52.1,42.7,44.6,36.6,27.0,83,59,27,30.07,29.95,3,1,12,0.00
2013-11-4,68.4,54.3,41.8,39.7,32.8,21.4,84,50,17,30.11,29.94,3,1,13,0.00
2013-11-5,69.5,58.9,49.7,36.6,33.8,30.2,49,40,28,30.24,30.10,3,0,9,0.00
2013-11-6,67.9,58.3,48.4,41.0,37.3,33.6,64,46,33,30.28,30.19,2,0,8,0.00
2013-11-7,74.8,60.8,52.6,48.1,39.2,32.6,81,47,22,30.19,30.09,3,0,11,0.00
2013-11-8,73.1,57.9,47.3,50.8,46.6,41.7,93,69,38,30.10,29.97,3,0,12,0.00
2013-11-9,70.2,57.3,47.8,47.3,43.6,34.1,85,61,42,30.06,29.99,4,0,8,0.00
2013-11-10,68.3,53.5,46.2,51.8,47.1,43.1,95,80,52,30.14,30.04,3,0,8,0.00
2013-11-11,64.3,54.6,44.9,50.9,46.5,44.1,98,76,51,30.20,30.10,2,0,7,0.00
2013-11-12,71.0,58.8,52.1,52.4,47.1,43.1,91,66,45,30.29,30.18,3,0,7,0.01
2013-11-13,76.6,61.2,51.7,51.1,48.3,45.8,86,65,36,30.27,30.10,3,0,8,0.00
2013-11-14,69.4,55.9,47.7,53.5,47.6,37.6,94,75,52,30.12,29.88,3,0,11,0.00
2013-11-15,64.7,53.2,45.8,43.7,39.0,35.4,83,60,35,29.89,29.75,4,0,13,0.00
2013-11-16,62.5,51.7,44.1,47.5,43.9,39.9,94,77,45,29.95,29.79,2,0,10,0.00
2013-11-17,61.8,51.6,46.7,48.1,46.1,43.7,95,83,58,30.11,29.95,2,0,7,0.01
2013-11-18,58.9,49.3,42.9,47.0,44.7,41.0,96,85,62,30.18,30.10,2,0,10,0.00
2013-11-19,57.3,53.0,49.0,53.4,50.3,45.8,97,90,79,30.13,29.97,1,0,5,0.53
2013-11-20,55.9,53.6,49.4,55.3,53.0,48.9,98,98,96,29.97,29.87,3,0,11,0.48
2013-11-21,60.0,52.9,46.1,49.2,37.3,19.7,99,63,26,30.02,29.91,5,1,23,0.13
2013-11-22,66.5,58.3,50.4,25.5,16.3,7.6,37,20,12,30.05,29.92,7,3,23,0.00
2013-11-23,61.9,53.8,47.2,44.1,31.9,23.3,87,46,25,30.12,30.00,4,1,16,0.00
2013-11-24,60.5,50.0,41.4,45.8,41.7,37.3,94,75,47,30.28,30.12,3,0,8,0.00
2013-11-25,60.4,50.0,42.2,45.1,41.6,38.0,86,73,56,30.36,30.27,3,0,8,0.00
2013-11-26,58.2,49.9,44.8,42.9,39.6,-99.9,84,70,51,30.30,30.07,4,-8,10,0.00
2013-11-27,59.1,51.0,44.6,46.3,43.5,41.0,89,76,60,30.07,29.88,3,0,9,0.00
2013-11-28,66.5,55.7,49.2,43.4,40.9,39.1,73,59,40,30.09,29.90,3,0,9,0.00
2013-11-29,66.7,55.2,47.8,44.7,42.2,38.7,77,63,42,30.23,30.09,4,0,9,0.00
2013-11-30,63.6,54.1,47.7,46.2,43.0,40.7,82,67,48,30.29,30.22,3,0,7,0.00
2013-12-1,67.0,56.9,48.5,46.8,43.6,41.0,78,62,45,30.36,30.24,5,0,9,0.00
2013-12-2,65.4,55.7,49.6,51.3,46.3,42.6,92,72,48,30.25,29.97,3,0,11,0.00
2013-12-3,53.9,47.0,38.7,51.6,34.4,20.2,92,62,39,29.97,29.87,4,1,14,0.00
2013-12-4,48.9,39.9,33.5,30.8,19.9,13.5,83,47,27,30.11,29.97,3,0,11,0.00
2013-12-5,46.8,37.9,29.8,28.8,17.5,11.2,76,45,27,30.20,30.11,3,0,9,0.00
2013-12-6,50.1,41.6,33.9,45.5,33.7,25.4,96,75,43,30.22,29.94,6,1,21,0.49
2013-12-7,45.4,38.5,31.5,43.7,31.5,25.1,96,78,47,30.28,29.94,4,1,14,0.15
2013-12-8,40.6,34.0,27.6,28.8,22.1,16.8,91,64,41,30.36,30.26,4,1,13,0.00
2013-12-9,46.2,36.4,30.2,24.8,18.2,12.9,73,48,31,30.46,30.35,6,1,15,0.00
2013-12-10,49.1,39.3,31.4,27.9,24.5,19.1,79,57,39,30.45,30.25,3,1,10,0.00
2013-12-11,52.1,42.4,32.5,31.5,28.0,21.0,82,58,37,30.29,30.22,4,1,11,0.00
2013-12-12,56.1,45.1,37.8,34.8,32.0,29.2,77,61,38,30.30,30.20,3,0,8,0.00
2013-12-13,58.8,46.9,37.0,39.1,34.2,29.4,90,63,36,30.36,30.26,4,0,8,0.00
2013-12-14,56.8,48.1,42.9,37.8,31.2,-99.9,71,54,39,30.43,30.33,5,-12,12,0.00
2013-12-15,60.4,49.6,41.5,38.2,33.5,29.0,76,55,37,30.40,30.27,3,0,11,0.00
2013-12-16,64.5,54.3,46.8,37.2,32.8,30.2,59,45,29,30.29,30.16,4,1,14,0.00
2013-12-17,62.9,52.3,44.6,41.5,36.6,31.6,74,56,40,30.21,30.06,2,0,7,0.00
2013-12-18,63.4,51.9,45.0,45.4,39.0,31.3,90,63,43,30.06,29.77,4,0,15,0.00
2013-12-19,58.3,47.9,40.6,41.9,31.8,16.5,84,57,33,29.97,29.74,3,1,12,0.00
2013-12-20,61.1,49.1,39.9,30.5,18.9,8.4,51,31,14,30.04,29.96,2,0,9,0.00
2013-12-21,60.5,51.0,43.7,46.4,41.0,27.4,90,70,39,30.11,29.99,3,0,7,0.00
2013-12-22,60.0,52.4,44.9,44.8,37.9,35.4,88,59,43,30.31,30.11,4,1,12,0.00
2013-12-23,59.9,50.6,42.2,40.8,38.1,35.8,79,63,46,30.42,30.30,3,0,8,0.00
2013-12-24,64.4,55.8,49.2,42.5,39.4,35.6,67,55,43,30.37,30.23,4,0,9,0.00
2013-12-25,61.9,53.4,42.7,42.6,37.3,32.7,80,55,41,30.32,30.23,4,1,12,0.00
2013-12-26,63.4,53.8,45.8,40.0,35.3,30.4,68,51,35,30.29,30.20,4,1,11,0.00
2013-12-27,58.0,49.5,43.2,42.6,37.5,32.7,80,64,50,30.26,30.15,3,0,5,0.00
2013-12-28,65.6,53.0,43.3,35.3,31.0,24.2,73,45,26,30.18,30.06,3,0,8,0.00
2013-12-29,63.4,53.1,45.0,31.3,24.3,18.7,58,33,21,30.21,30.12,4,1,14,0.00
2013-12-30,59.9,49.4,41.6,39.5,35.7,30.9,75,60,44,30.29,30.20,3,0,10,0.00
2013-12-31,61.4,50.7,43.7,39.7,33.7,28.8,73,54,32,30.30,30.19,3,0,9,0.00
2014-1-1,64.0,53.4,45.8,34.2,30.2,27.8,52,42,27,30.24,30.15,4,0,10,0.00
2014-1-2,63.2,53.6,43.5,37.3,33.6,30.7,65,47,32,30.21,30.08,3,0,8,0.00